When you browse on this site, cookies collect data to enhance your experience and personalize the content and advertising you see.
Visit our Privacy Policy to learn more. By continuing to use the site, you agree to this use of cookies and data.
  • In Netherlands
  • List of Countries
  • For 7 days
  • Water Temperature
  • Weather Map
  • Weather Widgets
  • user-avatar
    Login

    Hourly Weather Gabrovo

    Today, 30 May, Saturday

    Time Temperature Precipitation Wind Pressure Humidity
    00:00 +9°C° 0 mm 1 mps 700 mmHg 85%
    01:00 +8°C° 0 mm 1 mps 700 mmHg 85%
    02:00 +8°C° 0 mm 1 mps 699 mmHg 87%
    03:00 +8°C° 0 mm 1 mps 699 mmHg 87%
    04:00 +7°C° 0 mm 1 mps 699 mmHg 87%
    05:00 +7°C° 0 mm 1 mps 699 mmHg 87%
    06:00 +9°C° 0 mm 1 mps 700 mmHg 83%
    07:00 +11°C° 0 mm 1 mps 700 mmHg 78%
    08:00 +13°C° 0 mm 2 mps 700 mmHg 73%
    09:00 +14°C° 0.3 mm 2 mps 700 mmHg 69%
    10:00 +15°C° 0.3 mm 2 mps 700 mmHg 66%
    11:00 +16°C° 0.3 mm 2 mps 701 mmHg 62%
    12:00 +17°C° 0.6 mm 2 mps 700 mmHg 60%
    13:00 +18°C° 0.6 mm 2 mps 700 mmHg 58%
    14:00 +19°C° 0 mm 1 mps 700 mmHg 57%
    15:00 +19°C° 0.4 mm 1 mps 700 mmHg 58%
    16:00 +19°C° 0.4 mm 1 mps 700 mmHg 59%
    17:00 +18°C° 0.4 mm 1 mps 700 mmHg 60%
    18:00 +15°C° 0.2 mm 1 mps 699 mmHg 67%
    19:00 +14°C° 0.2 mm 1 mps 699 mmHg 74%
    20:00 +12°C° 0.2 mm 1 mps 699 mmHg 81%
    21:00 +11°C° 0.1 mm 1 mps 699 mmHg 83%
    22:00 +11°C° 0.1 mm 1 mps 699 mmHg 84%
    23:00 +10°C° 0.1 mm 1 mps 699 mmHg 85%

    Tomorrow, 31 May, Sunday

    Time Temperature Precipitation Wind Pressure Humidity
    00:00 +10°C° 0 mm 1 mps 699 mmHg 85%
    01:00 +9°C° 0 mm 1 mps 699 mmHg 85%
    02:00 +8°C° 0 mm 0 mps 699 mmHg 85%
    03:00 +9°C° 0 mm 1 mps 699 mmHg 85%
    04:00 +9°C° 0 mm 1 mps 699 mmHg 86%
    05:00 +9°C° 0 mm 1 mps 699 mmHg 86%
    06:00 +10°C° 0 mm 1 mps 699 mmHg 82%
    07:00 +12°C° 0 mm 1 mps 699 mmHg 78%
    08:00 +14°C° 0 mm 1 mps 699 mmHg 75%
    09:00 +15°C° 0.4 mm 1 mps 699 mmHg 73%
    10:00 +16°C° 0.4 mm 1 mps 700 mmHg 71%
    11:00 +18°C° 0.4 mm 1 mps 700 mmHg 69%
    12:00 +18°C° 1 mm 1 mps 699 mmHg 68%
    13:00 +19°C° 1 mm 1 mps 699 mmHg 67%
    14:00 +19°C° 1 mm 1 mps 699 mmHg 66%
    15:00 +17°C° 1.7 mm 2 mps 698 mmHg 72%
    16:00 +16°C° 1.7 mm 2 mps 698 mmHg 77%
    17:00 +16°C° 1.7 mm 2 mps 698 mmHg 82%
    18:00 +14°C° 1.4 mm 1 mps 698 mmHg 85%
    19:00 +13°C° 1.4 mm 1 mps 697 mmHg 88%
    20:00 +12°C° 1.4 mm 1 mps 697 mmHg 92%
    21:00 +11°C° 0.2 mm 1 mps 697 mmHg 91%
    22:00 +11°C° 0.2 mm 1 mps 698 mmHg 91%
    23:00 +11°C° 0.2 mm 1 mps 698 mmHg 91%

    Day after tomorrow, 1 June, Monday

    Time Temperature Precipitation Wind Pressure Humidity
    00:00 +10°C° 0 mm 1 mps 698 mmHg 91%
    01:00 +10°C° 0 mm 1 mps 698 mmHg 91%
    02:00 +10°C° 0 mm 1 mps 698 mmHg 91%
    03:00 +10°C° 0 mm 1 mps 697 mmHg 90%
    04:00 +9°C° 0 mm 1 mps 697 mmHg 89%
    05:00 +9°C° 0 mm 1 mps 697 mmHg 89%
    06:00 +10°C° 0 mm 1 mps 697 mmHg 85%
    07:00 +11°C° 0 mm 1 mps 697 mmHg 81%
    08:00 +12°C° 0 mm 1 mps 698 mmHg 78%
    09:00 +13°C° 0.1 mm 1 mps 698 mmHg 74%
    10:00 +14°C° 0.1 mm 1 mps 698 mmHg 71%
    11:00 +15°C° 0.1 mm 1 mps 698 mmHg 67%
    12:00 +15°C° 0.3 mm 1 mps 698 mmHg 69%
    13:00 +16°C° 0.3 mm 1 mps 698 mmHg 70%
    14:00 +16°C° 0.3 mm 1 mps 697 mmHg 72%
    15:00 +16°C° 0.7 mm 1 mps 697 mmHg 73%
    16:00 +15°C° 0.7 mm 2 mps 697 mmHg 75%
    17:00 +15°C° 0.7 mm 2 mps 697 mmHg 76%
    18:00 +14°C° 0.4 mm 2 mps 697 mmHg 80%
    19:00 +12°C° 0.4 mm 1 mps 696 mmHg 84%
    20:00 +11°C° 0.4 mm 1 mps 696 mmHg 88%
    21:00 +11°C° 0.1 mm 1 mps 697 mmHg 88%
    22:00 +10°C° 0.1 mm 1 mps 697 mmHg 88%
    23:00 +10°C° 0.1 mm 1 mps 697 mmHg 88%

    2 June, Tuesday

    Time Temperature Precipitation Wind Pressure Humidity
    00:00 +10°C° 0.1 mm 1 mps 697 mmHg 89%
    01:00 +10°C° 0.1 mm 1 mps 697 mmHg 90%
    02:00 +9°C° 0.1 mm 1 mps 697 mmHg 91%
    03:00 +9°C° 0.2 mm 1 mps 697 mmHg 91%
    04:00 +9°C° 0.2 mm 1 mps 697 mmHg 92%
    05:00 +9°C° 0.2 mm 1 mps 697 mmHg 93%
    06:00 +10°C° 0.5 mm 1 mps 697 mmHg 92%
    07:00 +10°C° 0.5 mm 1 mps 697 mmHg 92%
    08:00 +11°C° 0.5 mm 1 mps 698 mmHg 91%
    09:00 +11°C° 0.6 mm 1 mps 698 mmHg 90%
    10:00 +10°C° 0.6 mm 2 mps 698 mmHg 90%
    11:00 +12°C° 0.6 mm 2 mps 698 mmHg 89%
    12:00 +12°C° 0.5 mm 2 mps 698 mmHg 87%
    13:00 +12°C° 0.5 mm 2 mps 698 mmHg 85%
    14:00 +12°C° 0.5 mm 2 mps 698 mmHg 84%
    15:00 +12°C° 0.3 mm 2 mps 697 mmHg 84%
    16:00 +12°C° 0.3 mm 2 mps 697 mmHg 85%
    17:00 +11°C° 0.3 mm 1 mps 697 mmHg 86%
    18:00 +11°C° 0.1 mm 1 mps 697 mmHg 88%
    19:00 +10°C° 0.1 mm 1 mps 697 mmHg 89%
    20:00 +8°C° 0.1 mm 0 mps 697 mmHg 91%
    21:00 +8°C° 0.1 mm 0 mps 697 mmHg 91%
    22:00 +8°C° 0.1 mm 0 mps 697 mmHg 90%
    23:00 +7°C° 0.1 mm 0 mps 697 mmHg 90%

    3 June, Wednesday

    Time Temperature Precipitation Wind Pressure Humidity
    00:00 +7°C° 0.2 mm 0 mps 697 mmHg 90%
    01:00 +7°C° 0.2 mm 0 mps 697 mmHg 89%
    02:00 +7°C° 0.2 mm 0 mps 696 mmHg 89%
    03:00 +6°C° 0 mm 0 mps 696 mmHg 89%
    04:00 +7°C° 0 mm 1 mps 696 mmHg 89%
    05:00 +7°C° 0 mm 1 mps 696 mmHg 89%
    06:00 +8°C° 0 mm 1 mps 697 mmHg 84%
    07:00 +10°C° 0 mm 1 mps 697 mmHg 79%
    08:00 +11°C° 0 mm 1 mps 697 mmHg 74%
    09:00 +13°C° 0.1 mm 1 mps 697 mmHg 68%
    10:00 +14°C° 0.1 mm 2 mps 698 mmHg 62%
    11:00 +15°C° 0.1 mm 2 mps 698 mmHg 56%
    12:00 +16°C° 0.3 mm 2 mps 698 mmHg 54%
    13:00 +17°C° 0.3 mm 2 mps 697 mmHg 53%
    14:00 +17°C° 0.3 mm 2 mps 697 mmHg 52%
    15:00 +18°C° 0.2 mm 1 mps 697 mmHg 53%
    16:00 +18°C° 0.2 mm 1 mps 697 mmHg 54%
    17:00 +18°C° 0.2 mm 1 mps 697 mmHg 55%
    18:00 +15°C° 0.1 mm 1 mps 697 mmHg 63%
    19:00 +13°C° 0.1 mm 1 mps 697 mmHg 72%
    20:00 +11°C° 0.1 mm 1 mps 696 mmHg 80%
    21:00 +11°C° 0 mm 1 mps 697 mmHg 82%
    22:00 +10°C° 0 mm 1 mps 697 mmHg 84%
    23:00 +9°C° 0 mm 2 mps 697 mmHg 86%

    4 June, Thursday

    Time Temperature Precipitation Wind Pressure Humidity
    00:00 +9°C° 0 mm 1 mps 697 mmHg 87%
    01:00 +9°C° 0 mm 1 mps 696 mmHg 87%
    02:00 +9°C° 0 mm 1 mps 696 mmHg 88%
    03:00 +9°C° 0 mm 1 mps 696 mmHg 87%
    04:00 +8°C° 0 mm 0 mps 696 mmHg 87%
    05:00 +8°C° 0 mm 0 mps 696 mmHg 86%
    06:00 +11°C° 0 mm 1 mps 697 mmHg 81%
    07:00 +13°C° 0 mm 1 mps 697 mmHg 77%
    08:00 +15°C° 0 mm 1 mps 698 mmHg 72%
    09:00 +16°C° 0.2 mm 1 mps 698 mmHg 68%
    10:00 +19°C° 0.2 mm 1 mps 699 mmHg 65%
    11:00 +20°C° 0.2 mm 1 mps 699 mmHg 62%
    12:00 +21°C° 0.8 mm 1 mps 699 mmHg 61%
    13:00 +21°C° 0.8 mm 1 mps 699 mmHg 60%
    14:00 +22°C° 0.8 mm 1 mps 699 mmHg 59%
    15:00 +22°C° 0.5 mm 1 mps 699 mmHg 60%
    16:00 +21°C° 0.5 mm 1 mps 699 mmHg 61%
    17:00 +21°C° 0.5 mm 1 mps 699 mmHg 62%
    18:00 +19°C° 0.2 mm 1 mps 699 mmHg 68%
    19:00 +18°C° 0.2 mm 1 mps 698 mmHg 74%
    20:00 +15°C° 0.2 mm 1 mps 698 mmHg 80%
    21:00 +14°C° 0 mm 1 mps 699 mmHg 81%
    22:00 +13°C° 0 mm 1 mps 699 mmHg 82%
    23:00 +13°C° 0 mm 1 mps 699 mmHg 83%
    Show more